Weather History for Hurguada, Egypt

Change the Weather History Date:

Sunday, September 15, 2013

  Actual Average Record
Temperature  
Mean Temperature 90 °F -  
Max Temperature 98 °F 88 °F - ()
Min Temperature 81 °F 74 °F - ()
Cooling Degree Days 24    
Growing Degree Days 40 (Base 50)    
Moisture  
Dew Point 61 °F    
Average Humidity 35    
Maximum Humidity 47    
Minimum Humidity 19    
Precipitation  
Precipitation 0.00 in - - ()
Sea Level Pressure  
Sea Level Pressure 29.74 in    
Wind  
Wind Speed 14 mph ()    
Max Wind Speed 26 mph    
Max Gust Speed -    
Visibility 6.0 miles    
Events      
T = Trace of Precipitation, MM = Missing Value Source: Averaged Metar Reports

Daily Weather History Graph

Daily Weather History Graph

Search for Another Location

Airport:

Trip Planner

Search our weather history database for the weather conditions in past years. The results will help you decide how hot, cold, wet, or windy it might be!

Date:

Astronomy

Sep. 15, 2013 Rise Set
Actual Time 5:30 AM EET 5:49 PM EET
Civil Twilight 5:06 AM EET 6:12 PM EET
Nautical Twilight 4:39 AM EET 6:39 PM EET
Astronomical Twilight 4:12 AM EET 7:07 PM EET
Moon 2:44 PM EET (9/15) 1:04 AM EET (9/15)
Length of Visible Light 13h 05m
Length of Day
12h 19m
Waxing Gibbous, 79% of the Moon is Illuminated
Sep 15
Waxing Gibbous
Sep 19
Full
Sep 27
Last Quarter
Oct 5
New
Oct 12
First Quarter

Hourly Weather History & Observations

Time (EET) Temp. Heat Index Dew Point Humidity Pressure Visibility Wind Dir Wind Speed Gust Speed Precip Events Conditions
12:00 AM 87.8 °F 89.4 °F 64.4 °F 46% 29.77 in - North 11.5 mph - N/A   Clear
1:00 AM 87.8 °F 88.5 °F 62.6 °F 43% 29.74 in - North 17.3 mph - N/A   Clear
2:00 AM 88 °F - 61 °F 30% 29.76 in 6 mi North 18.4 mph - -  
2:00 AM 87.8 °F 87.6 °F 60.8 °F 40% 29.74 in - North 18.4 mph - N/A   Clear
3:00 AM 86.0 °F 84.5 °F 55.4 °F 35% 29.74 in - NW 9.2 mph - N/A   Clear
4:00 AM 86.0 °F 84.2 °F 53.6 °F 33% 29.74 in - NNW 9.2 mph - N/A   Clear
5:00 AM 82.4 °F - 51.8 °F 35% 29.77 in - North 5.8 mph - N/A   Clear
6:00 AM 82.4 °F - 50.0 °F 32% 29.77 in - NNW 3.5 mph - N/A   Clear
7:00 AM 86.0 °F 84.2 °F 53.6 °F 33% 29.80 in - NNW 10.4 mph - N/A   Clear
8:00 AM 88 °F - 56 °F 24% 29.82 in 6 mi NNW 21.9 mph - -  
8:00 AM 87.8 °F 86.5 °F 57.2 °F 35% 29.80 in - NNW 21.9 mph - N/A   Clear
9:40 AM 91.4 °F 89.9 °F 57.2 °F 31% 29.80 in - North 25.3 mph - N/A   Clear
10:00 AM 93.2 °F 96.2 °F 66.2 °F 41% 29.80 in - North 23.0 mph - N/A   Clear
11:00 AM 95.0 °F 97.0 °F 64.4 °F 36% 29.77 in - North 25.3 mph - N/A   Clear
12:00 PM 96.8 °F 103.1 °F 69.8 °F 41% 29.74 in - North 26.5 mph - N/A   Clear
1:00 PM 98.6 °F 105.5 °F 69.8 °F 39% 29.71 in - North 23.0 mph - N/A   Clear
2:00 PM 98 °F - 70 °F 31% 29.72 in 6 mi North 23.0 mph - -  
2:00 PM 98.6 °F 105.5 °F 69.8 °F 39% 29.71 in - North 23.0 mph - N/A   Clear
3:00 PM 96.8 °F 105.1 °F 71.6 °F 44% 29.68 in - North 23.0 mph - N/A   Clear
4:00 PM 95.0 °F 103.2 °F 71.6 °F 47% 29.68 in - North 23.0 mph - N/A   Clear
5:00 PM 93.2 °F 98.8 °F 69.8 °F 46% 29.68 in - North 19.6 mph - N/A   Clear
6:00 PM 91.4 °F 95.4 °F 68.0 °F 46% 29.68 in - North 13.8 mph - N/A   Clear
7:00 PM 93.2 °F 91.9 °F 57.2 °F 30% 29.71 in - NNW 15.0 mph - N/A   Clear
8:00 PM 90 °F - 53 °F 19% 29.74 in 6 mi Calm Calm - -  
8:00 PM 89.6 °F 87.3 °F 53.6 °F 29% 29.74 in - Calm Calm - N/A   Clear
9:00 PM 89.6 °F 87.7 °F 55.4 °F 31% 29.74 in - WNW 15.0 mph - N/A   Clear
10:00 PM 89.6 °F - 51.8 °F 27% 29.74 in - WNW 16.1 mph - N/A   Clear
11:00 PM 87.8 °F 85.7 °F 53.6 °F 31% 29.74 in - WNW 13.8 mph - N/A   Clear